Qaanaaq

KL  EN  DA
ASIAQ
Weather Now GREENLAND SURVEY
Updated [WGT/WGST] Temperature [°C] Wind [m/s] Air pressure [hPa] Relative humidity [%] Precipitation [mm]
Present Wind chill Speed Max
20.04 17:00-21,0-29,03,2 ⇖3,61006660,0
20.04 16:00-21,2-29,83,6 ⇖4,11006640,0
20.04 15:00-20,8-25,41,5 ⇙2,11007610,0
20.04 14:00-20,50,00,8 ⇙1,51007550,0
20.04 13:00-22,30,00,1 ⇙0,51007560,0
20.04 12:00-19,30,00,0 ⇓0,51008480,0
20.04 11:00-21,00,00,4 ⇙0,51008560,0
20.04 10:00-22,50,00,1 ⇓0,51009540,0
20.04 09:00-22,60,00,3 ⇙0,51009500,0
20.04 08:00-22,90,00,3 ⇙0,51010700,0
20.04 07:00-24,80,00,3 ⇙0,51010700,0
20.04 06:00-23,80,00,7 ⇙1,01010720,0
20.04 05:00-22,90,00,9 ⇙1,01010680,0
20.04 04:00-23,00,00,1 ⇙0,51011710,0
20.04 03:00-22,60,00,2 ⇙1,01010690,0
20.04 02:00-22,00,00,5 ⇙1,01011700,0
20.04 01:00-21,80,00,5 ⇙1,01011690,0
20.04 00:00-21,40,00,6 ⇙1,01011700,0
19.04 23:00-20,80,00,0 ⇓0,01011660,0
19.04 22:00-19,60,00,2 ⇐0,51011650,0
19.04 21:00-19,90,00,5 ⇖0,51011670,0
19.04 20:00-19,10,00,1 ⇐0,51011600,0
19.04 19:00-18,60,00,7 ⇖1,51011560,0
19.04 18:00-18,00,01,3 ⇖2,11011530,0
19.04 17:00-18,6-25,02,5 ⇖3,11011580,0
Position: (77.48527778,-69.3744444444)

[Back]